Retour au catalogue

STARLINK-5553

ActifCommunicationsSSO
NORAD 56333·PAYLOAD·🇺🇸 United States

Lancé Apr 27, 2023 depuis Vandenberg Space Force Base

Loading…

Prochains Passages (prochaines 24 heures)

TLE

FraisSource: CelesTrak SupGP

Époque: Sep 14, 2026, 22:19 UTC

1 56333C 23058S   26257.93034722  .00055037  00000+0  17099-2 0  2574
2 56333  97.2847 254.7919 0001706  83.9153 269.8249 15.33384715    10

Suivez STARLINK-5553 en temps réel avec AllMySat

Download on the App Store